| time (UTC) | temp C | wind direction | speed KPH | gust KPH | rain 1hr cm | rain 24hr cm | rain mn cm | humidity % | barometer mb |
| 20260509135746 | 20 | 227 | 9.7 | 17.7 | 0.00 | 0.00 | 0.00 | 25 | 1005.3 |
| 20260509133613 | 18 | 230 | 12.9 | 20.9 | 0.00 | 0.00 | 0.00 | 26 | 1005.3 |
| 20260509132638 | 18 | 219 | 11.3 | 20.9 | 0.00 | 0.00 | 0.00 | 27 | 1005.2 |
| 20260509131642 | 17 | 221 | 12.9 | 19.3 | 0.00 | 0.00 | 0.00 | 28 | 1005.1 |
| 20260509130656 | 17 | 246 | 12.9 | 19.3 | 0.00 | 0.00 | 0.00 | 29 | 1005.1 |
| 20260509125651 | 16 | 236 | 9.7 | 17.7 | 0.00 | 0.00 | 0.00 | 29 | 1005.1 |
| 20260509124705 | 16 | 197 | 9.7 | 17.7 | 0.00 | 0.00 | 0.00 | 29 | 1004.9 |
| 20260509123641 | 16 | 190 | 9.7 | 17.7 | 0.00 | 0.00 | 0.00 | 30 | 1004.8 |
| 20260509122629 | 16 | 229 | 9.7 | 17.7 | 0.00 | 0.00 | 0.00 | 29 | 1004.7 |
| 20260509121602 | 16 | 226 | 11.3 | 20.9 | 0.00 | 0.00 | 0.00 | 29 | 1004.6 |
| 20260509120620 | 16 | 215 | 11.3 | 20.9 | 0.00 | 0.00 | 0.00 | 29 | 1004.5 |
| 20260509115605 | 16 | 200 | 11.3 | 19.3 | 0.00 | 0.00 | 0.00 | 29 | 1004.3 |
| 20260509114541 | 16 | 242 | 11.3 | 19.3 | 0.00 | 0.00 | 0.00 | 29 | 1004.3 |
| 20260509113541 | 16 | 229 | 11.3 | 19.3 | 0.00 | 0.00 | 0.00 | 29 | 1004.3 |
| 20260509112528 | 16 | 218 | 9.7 | 19.3 | 0.00 | 0.00 | 0.00 | 29 | 1004.4 |
| 20260509111544 | 16 | 199 | 9.7 | 19.3 | 0.00 | 0.00 | 0.00 | 29 | 1004.3 |
| 20260509105423 | 16 | 227 | 12.9 | 20.9 | 0.00 | 0.00 | 0.00 | 28 | 1004.4 |
| 20260509104403 | 16 | 211 | 11.3 | 20.9 | 0.00 | 0.00 | 0.00 | 28 | 1004.3 |
| 20260509103405 | 17 | 241 | 12.9 | 24.1 | 0.00 | 0.00 | 0.00 | 28 | 1004.3 |
| 20260509102427 | 17 | 224 | 11.3 | 24.1 | 0.00 | 0.00 | 0.00 | 28 | 1004.3 |
| 20260509101415 | 17 | 213 | 12.9 | 22.5 | 0.00 | 0.00 | 0.00 | 28 | 1004.3 |
| 20260509100340 | 17 | 204 | 16.1 | 24.1 | 0.00 | 0.00 | 0.00 | 27 | 1004.2 |
| 20260509095356 | 17 | 196 | 14.5 | 24.1 | 0.00 | 0.00 | 0.00 | 27 | 1004.3 |
| 20260509094335 | 17 | 181 | 14.5 | 27.4 | 0.00 | 0.00 | 0.00 | 27 | 1004.2 |
| 20260509093346 | 17 | 222 | 16.1 | 27.4 | 0.00 | 0.00 | 0.00 | 27 | 1004.3 |
| 20260509092357 | 17 | 240 | 14.5 | 27.4 | 0.00 | 0.00 | 0.00 | 26 | 1004.3 |
| 20260509091355 | 17 | 214 | 14.5 | 24.1 | 0.00 | 0.00 | 0.00 | 26 | 1004.3 |
| 20260509090323 | 17 | 233 | 14.5 | 25.7 | 0.00 | 0.00 | 0.00 | 26 | 1004.4 |
| 20260509085335 | 18 | 223 | 16.1 | 25.7 | 0.00 | 0.00 | 0.00 | 26 | 1004.5 |
| 20260509083250 | 18 | 230 | 14.5 | 25.7 | 0.00 | 0.00 | 0.00 | 25 | 1004.6 |
| 20260509082227 | 18 | 217 | 14.5 | 25.7 | 0.00 | 0.00 | 0.00 | 25 | 1004.6 |
| 20260509081158 | 18 | 232 | 16.1 | 25.7 | 0.00 | 0.00 | 0.00 | 25 | 1004.7 |
| 20260509075022 | 18 | 237 | 16.1 | 24.1 | 0.00 | 0.00 | 0.00 | 24 | 1004.7 |
| 20260509074004 | 18 | 213 | 14.5 | 22.5 | 0.00 | 0.00 | 0.00 | 24 | 1004.8 |
| 20260509073025 | 18 | 245 | 14.5 | 24.1 | 0.00 | 0.00 | 0.00 | 24 | 1004.9 |
| 20260509072016 | 18 | 231 | 14.5 | 25.7 | 0.00 | 0.00 | 0.00 | 23 | 1005.0 |
| 20260509065849 | 18 | 221 | 12.9 | 20.9 | 0.00 | 0.00 | 0.00 | 23 | 1005.1 |
| 20260509064908 | 18 | 213 | 11.3 | 19.3 | 0.00 | 0.00 | 0.00 | 23 | 1005.1 |
| 20260509063931 | 18 | 217 | 9.7 | 17.7 | 0.00 | 0.00 | 0.00 | 23 | 1005.1 |
| 20260509061851 | 18 | 214 | 9.7 | 16.1 | 0.00 | 0.00 | 0.00 | 22 | 1005.2 |
| 20260509060909 | 18 | 227 | 8.0 | 17.7 | 0.00 | 0.00 | 0.00 | 23 | 1005.3 |
| 20260509055844 | 18 | 233 | 9.7 | 17.7 | 0.00 | 0.00 | 0.00 | 22 | 1005.2 |
| 20260509053711 | 18 | 233 | 9.7 | 16.1 | 0.00 | 0.00 | 0.00 | 22 | 1005.3 |
| 20260509052709 | 18 | 213 | 9.7 | 19.3 | 0.00 | 0.00 | 0.00 | 22 | 1005.4 |
| 20260509051724 | 19 | 215 | 9.7 | 19.3 | 0.00 | 0.00 | 0.00 | 21 | 1005.6 |
| 20260509050655 | 19 | 234 | 9.7 | 19.3 | 0.00 | 0.00 | 0.00 | 21 | 1005.7 |
| 20260509045656 | 19 | 218 | 8.0 | 17.7 | 0.00 | 0.00 | 0.00 | 21 | 1005.8 |
| 20260509044630 | 19 | 223 | 9.7 | 17.7 | 0.00 | 0.00 | 0.00 | 20 | 1005.8 |
| 20260509043633 | 20 | 213 | 11.3 | 22.5 | 0.00 | 0.00 | 0.00 | 20 | 1005.6 |
| 20260509041456 | 20 | 4 | 11.3 | 22.5 | 0.00 | 0.00 | 0.00 | 19 | 1005.5 |
| 20260509040455 | 20 | 211 | 14.5 | 29.0 | 0.00 | 0.00 | 0.00 | 19 | 1005.5 |
| 20260509034400 | 20 | 203 | 12.9 | 24.1 | 0.00 | 0.00 | 0.00 | 18 | 1005.2 |
| 20260509033411 | 20 | 200 | 12.9 | 24.1 | 0.00 | 0.00 | 0.00 | 18 | 1004.9 |
| 20260509032432 | 21 | 225 | 12.9 | 24.1 | 0.00 | 0.00 | 0.00 | 18 | 1004.9 |
| 20260509031430 | 21 | 195 | 12.9 | 24.1 | 0.00 | 0.00 | 0.00 | 18 | 1004.6 |
| 20260509030358 | 21 | 212 | 11.3 | 24.1 | 0.00 | 0.00 | 0.00 | 17 | 1004.5 |
| 20260509025353 | 21 | 166 | 12.9 | 24.1 | 0.00 | 0.00 | 0.00 | 17 | 1004.3 |
| 20260509024340 | 21 | 207 | 12.9 | 25.7 | 0.00 | 0.00 | 0.00 | 17 | 1004.0 |
| 20260509023338 | 21 | 192 | 11.3 | 25.7 | 0.00 | 0.00 | 0.00 | 17 | 1003.9 |
| 20260509022354 | 22 | 215 | 12.9 | 24.1 | 0.00 | 0.00 | 0.00 | 17 | 1003.7 |
| 20260509021325 | 22 | 196 | 14.5 | 27.4 | 0.00 | 0.00 | 0.00 | 16 | 1003.5 |
| 20260509020348 | 22 | 160 | 16.1 | 27.4 | 0.00 | 0.00 | 0.00 | 16 | 1003.6 |
| 20260509015320 | 23 | 156 | 14.5 | 27.4 | 0.00 | 0.00 | 0.00 | 15 | 1003.4 |
| 20260509013135 | 24 | 163 | 14.5 | 29.0 | 0.00 | 0.00 | 0.00 | 14 | 1003.3 |
| 20260509012119 | 24 | 175 | 16.1 | 29.0 | 0.00 | 0.00 | 0.00 | 14 | 1003.3 |
| 20260509004854 | 25 | 177 | 17.7 | 29.0 | 0.00 | 0.00 | 0.00 | 13 | 1003.3 |
| 20260509003901 | 26 | 202 | 14.5 | 29.0 | 0.00 | 0.00 | 0.00 | 12 | 1003.3 |
| 20260509002835 | 26 | 191 | 17.7 | 32.2 | 0.00 | 0.00 | 0.00 | 13 | 1003.2 |
| 20260509001823 | 26 | 4 | 19.3 | 32.2 | 0.00 | 0.00 | 0.00 | 13 | 1003.3 |
| 20260509000758 | 26 | 138 | 17.7 | 30.6 | 0.00 | 0.00 | 0.00 | 12 | 1003.3 |
| 20260508235752 | 26 | 194 | 17.7 | 35.4 | 0.00 | 0.00 | 0.00 | 12 | 1003.3 |
| 20260508234806 | 26 | 147 | 19.3 | 35.4 | 0.00 | 0.00 | 0.00 | 12 | 1003.4 |
| 20260508233822 | 26 | 154 | 17.7 | 33.8 | 0.00 | 0.00 | 0.00 | 12 | 1003.4 |
| 20260508232802 | 27 | 155 | 16.1 | 30.6 | 0.00 | 0.00 | 0.00 | 11 | 1003.4 |
| 20260508230642 | 27 | 211 | 12.9 | 33.8 | 0.00 | 0.00 | 0.00 | 11 | 1003.4 |
| 20260508225637 | 27 | 223 | 11.3 | 24.1 | 0.00 | 0.00 | 0.00 | 11 | 1003.7 |
| 20260508224613 | 27 | 223 | 14.5 | 27.4 | 0.00 | 0.00 | 0.00 | 11 | 1003.6 |
| 20260508222547 | 27 | 223 | 16.1 | 32.2 | 0.00 | 0.00 | 0.00 | 11 | 1003.7 |
| 20260508221549 | 27 | 165 | 16.1 | 32.2 | 0.00 | 0.00 | 0.00 | 11 | 1003.7 |
| 20260508220608 | 27 | 194 | 11.3 | 35.4 | 0.00 | 0.00 | 0.00 | 12 | 1003.8 |
| 20260508215540 | 27 | 249 | 16.1 | 35.4 | 0.00 | 0.00 | 0.00 | 12 | 1004.1 |
| 20260508214525 | 28 | 273 | 11.3 | 24.1 | 0.00 | 0.00 | 0.00 | 12 | 1004.2 |
| 20260508213501 | 27 | 221 | 12.9 | 29.0 | 0.00 | 0.00 | 0.00 | 13 | 1004.3 |
| 20260508212504 | 27 | 252 | 12.9 | 32.2 | 0.00 | 0.00 | 0.00 | 12 | 1004.4 |
| 20260508211522 | 27 | 230 | 19.3 | 32.2 | 0.00 | 0.00 | 0.00 | 13 | 1004.6 |
| 20260508210453 | 27 | 196 | 17.7 | 29.0 | 0.00 | 0.00 | 0.00 | 12 | 1004.5 |
| 20260508205447 | 27 | 222 | 17.7 | 29.0 | 0.00 | 0.00 | 0.00 | 13 | 1004.8 |
| 20260508204432 | 27 | 156 | 16.1 | 30.6 | 0.00 | 0.00 | 0.00 | 13 | 1004.9 |
| 20260508203400 | 26 | 186 | 16.1 | 30.6 | 0.00 | 0.00 | 0.00 | 13 | 1005.0 |
| 20260508202424 | 26 | 223 | 16.1 | 29.0 | 0.00 | 0.00 | 0.00 | 13 | 1005.1 |
| 20260508201416 | 27 | 269 | 19.3 | 40.2 | 0.00 | 0.00 | 0.00 | 13 | 1005.2 |
| 20260508195324 | 25 | 127 | 12.9 | 25.7 | 0.00 | 0.00 | 0.00 | 13 | 1005.4 |
| 20260508194338 | 26 | 182 | 11.3 | 25.7 | 0.00 | 0.00 | 0.00 | 14 | 1005.5 |
| 20260508193339 | 25 | 169 | 12.9 | 24.1 | 0.00 | 0.00 | 0.00 | 14 | 1005.6 |
| 20260508192338 | 26 | 252 | 11.3 | 30.6 | 0.00 | 0.00 | 0.00 | 13 | 1005.7 |
| 20260508185114 | 25 | 167 | 11.3 | 24.1 | 0.00 | 0.00 | 0.00 | 14 | 1005.9 |
| 20260508184044 | 26 | 252 | 11.3 | 24.1 | 0.00 | 0.00 | 0.00 | 14 | 1006.2 |
| 20260508183022 | 25 | 154 | 9.7 | 19.3 | 0.00 | 0.00 | 0.00 | 15 | 1006.2 |
| 20260508182030 | 25 | 242 | 6.4 | 19.3 | 0.00 | 0.00 | 0.00 | 15 | 1006.6 |
| 20260508175900 | 25 | 302 | 14.5 | 37.0 | 0.00 | 0.00 | 0.00 | 14 | 1007.0 |
| 20260508174913 | 24 | 259 | 12.9 | 27.4 | 0.00 | 0.00 | 0.00 | 15 | 1007.0 |
| 20260508173918 | 25 | 292 | 9.7 | 27.4 | 0.00 | 0.00 | 0.00 | 15 | 1007.2 |
| 20260508172906 | 24 | 227 | 14.5 | 29.0 | 0.00 | 0.00 | 0.00 | 15 | 1007.3 |
| 20260508170736 | 24 | 306 | 11.3 | 25.7 | 0.00 | 0.00 | 0.00 | 15 | 1007.6 |
| 20260508165719 | 24 | 322 | 11.3 | 22.5 | 0.00 | 0.00 | 0.00 | 15 | 1007.7 |
| 20260508164656 | 23 | 359 | 9.7 | 22.5 | 0.00 | 0.00 | 0.00 | 16 | 1007.8 |
| 20260508163654 | 23 | 151 | 6.4 | 22.5 | 0.00 | 0.00 | 0.00 | 16 | 1007.8 |
| 20260508162641 | 23 | 288 | 6.4 | 24.1 | 0.00 | 0.00 | 0.00 | 15 | 1007.8 |
| 20260508160548 | 22 | 327 | 6.4 | 19.3 | 0.00 | 0.00 | 0.00 | 16 | 1008.0 |
| 20260508155559 | 22 | 91 | 9.7 | 19.3 | 0.00 | 0.00 | 0.00 | 16 | 1008.0 |
| 20260508154547 | 21 | 257 | 12.9 | 24.1 | 0.00 | 0.00 | 0.00 | 15 | 1008.0 |
| 20260508153532 | 21 | 295 | 11.3 | 25.7 | 0.00 | 0.00 | 0.00 | 16 | 1007.9 |
| 20260508152529 | 21 | 217 | 12.9 | 29.0 | 0.00 | 0.00 | 0.00 | 15 | 1007.9 |
| 20260508151548 | 20 | 267 | 19.3 | 29.0 | 0.00 | 0.00 | 0.00 | 15 | 1007.9 |
| 20260508150548 | 20 | 264 | 9.7 | 27.4 | 0.00 | 0.00 | 0.00 | 14 | 1007.9 |
| 20260508144415 | 19 | 242 | 8.0 | 22.5 | 0.00 | 0.00 | 0.00 | 15 | 1008.1 |
| 20260508143427 | 19 | 192 | 9.7 | 19.3 | 0.00 | 0.00 | 0.00 | 15 | 1008.1 |
| 20260508141248 | 15 | 175 | 6.4 | 12.9 | 0.00 | 0.00 | 0.00 | 26 | 1008.0 |